Home   Weather   Rio Grande   Past weeks

Flag for Brazil Past Weather in Rio Grande, Rio Grande do Sul, Brazil — Yesterday and Last 2 Weeks

Now
64 °F

Clear.


Feels Like: 64 °F
Forecast: 68 / 82 °F
Wind: 6 mph from East

Location: Porto Alegre Aero-Porto

Current Time: Dec 6, 2016 at 4:06:47 am

Latest Report: Dec 6, 2016 at 3:00 am


Visibility: 10 mi

Pressure: 29.80 "Hg

Humidity: 83%

Dew Point: 59 °F

Location of Rio GrandeLocation

Past Weather in Rio Grande — Graph

°F

Rio Grande Temperature Yesterday

Maximum temperature yesterday: 81 °F (at 3:00 pm)
Minimum temperature yesterday: 61 °F (at 3:00 am)
Average temperature yesterday: 70 °F

High & Low Weather Summary for the Past Weeks

 TemperatureHumidityPressure
High91 °F (Nov 26, 4:00 pm)94% (Nov 21, 7:00 am)30.21 "Hg (Nov 21, 7:00 am)
Low55 °F (Nov 30, 5:00 am)22% (Dec 3, 12:00 pm)29.71 "Hg (Dec 3, 6:00 pm)
Average71 °F68%29.94 "Hg
* Reported Nov 21 3:00 am — Dec 6 3:00 am, Rio Grande, Weather by CustomWeather, © 2016

Note: Actual official high and low records may vary slightly from our data, if they occured in-between our weather recording intervals... More about our weather records

Advertising

Rio Grande Weather History for the Previous 24 Hours

Scroll right to see more
 ConditionsComfort  
Time TempWeatherWind HumidityBarometerVisibility
3:00 am
Tue, Dec 6
64 °FClear.6 mph83%29.80 "Hg10 mi
2:00 am66 °FClear.6 mph78%29.80 "Hg10 mi
1:00 am66 °FClear.7 mph83%29.83 "Hg10 mi
12:00 am68 °FClear.8 mph83%29.83 "Hg10 mi
11:00 pm
Mon, Dec 5
70 °FClear.10 mph78%29.83 "Hg10 mi
10:00 pm72 °FClear.10 mph78%29.80 "Hg10 mi
9:00 pm73 °FClear.8 mph69%29.80 "Hg10 mi
8:00 pm75 °FSunny.9 mph57%29.80 "Hg10 mi
7:00 pm79 °FSunny.9 mph48%29.77 "Hg10 mi
6:00 pm79 °FScattered clouds.9 mph48%29.77 "HgN/A
5:00 pm79 °FPartly sunny.8 mph51%29.80 "HgN/A
4:00 pm79 °FPartly sunny.9 mph54%29.80 "HgN/A
3:00 pm81 °FPartly sunny.8 mph51%29.80 "HgN/A
2:00 pm79 °FPartly sunny.9 mph51%29.83 "HgN/A
1:00 pm77 °FScattered clouds.5 mph54%29.83 "HgN/A
12:00 pm75 °FScattered clouds.6 mph61%29.86 "HgN/A
11:00 am73 °FScattered clouds.5 mph61%29.86 "HgN/A
10:00 am70 °FSunny.3 mph69%29.86 "Hg10 mi
9:00 am66 °FSunny.5 mph73%29.86 "Hg10 mi
8:00 am64 °FSunny.2 mph78%29.86 "Hg10 mi
7:00 am63 °FSunny.2 mph88%29.83 "Hg10 mi
6:00 am63 °FClear.No wind88%29.83 "Hg10 mi
5:00 am61 °FClear.1 mph88%29.83 "Hg6 mi
4:00 am61 °FClear.2 mph88%29.80 "Hg6 mi
Weather by CustomWeather, © 2016

See weather overviewHow to use our weather pages